Flag for Brazil Weather past 2 weeks in Araguaína, Tocantins, Brazil

Now
79 °F

Partly sunny.


Feels Like: 82 °F
Forecast: 71 / 87 °F
Wind: 3 mph from Southeast

Location: Maraba Airport

Current Time: Dec 25, 2014 at 9:22:50 AM

Latest Report: Dec 25, 2014 at 9:00 AM


Visibility: N/A

Pressure: 29.95 "Hg

Humidity: 84%

Dew point: 73 °F

Location of AraguaínaLocation

Historic Weather in Araguaína — Graph

°F

Araguaína temperature yesterday

Maximum temperature yesterday: 88 °F (at 2:00 PM)
Minimum temperature yesterday: 72 °F (at 2:00 AM)
Average temperature yesterday: 78 °F

Past Weeks' High & Low Weather Summary

 TemperatureHumidityPressure
High93 °F (Dec 10, 3:00 PM)100% (Dec 11, 12:00 AM)29.98 "Hg (Dec 11, 12:00 AM)
Low39 °F (Dec 14, 9:00 AM)52% (Dec 16, 1:00 PM)29.74 "Hg (Dec 10, 4:00 PM)
Average80 °F86%29.85 "Hg
* Reported Dec 10 8:00 AM — Dec 25 8:00 AM, Araguaína, Weather by CustomWeather, © 2014

Note: Actual official high and low records may vary slightly from our data, if they occured in-between our weather recording intervals... More about our weather records

Advertising

Araguaína weather history for previous 24 hours

 ConditionsComfort  
Time TempWeatherWind HumidityBarometerVisibility
8:00 AM
Dec 25
75 °FLow clouds.3 mph94%29.92 "HgN/A
7:00 AM75 °FPartly sunny.1 mph100%29.89 "HgN/A
6:00 AM73 °FLow clouds.No wind100%29.86 "HgN/A
5:00 AM73 °FMostly cloudy.No wind100%29.86 "HgN/A
4:00 AM75 °FMostly cloudy.2 mph94%29.86 "HgN/A
3:00 AM75 °FLight rain. Mostly cloudy.2 mph100%29.89 "HgN/A
2:00 AM75 °FPassing clouds.5 mph94%29.89 "HgN/A
1:00 AM75 °FPassing clouds.5 mph94%29.89 "HgN/A
12:00 AM75 °FClear.3 mph94%29.89 "Hg10 mi
11:00 PM
Dec 24
75 °FClear.6 mph100%29.89 "Hg10 mi
10:00 PM75 °FLight rain. Clear.6 mph100%29.89 "HgN/A
9:00 PM75 °FLight rain. Clear.5 mph100%29.89 "HgN/A
8:00 PM75 °FThunderstorms. Passing clouds.3 mph94%29.86 "HgN/A
7:00 PM77 °FThunderstorms. Partly cloudy.17 mph94%29.86 "Hg2 mi
6:00 PM84 °FPartly sunny.2 mph79%29.80 "HgN/A
5:00 PM86 °FPartly sunny.3 mph70%29.77 "HgN/A
4:00 PM84 °FScattered clouds.3 mph74%29.77 "HgN/A
3:00 PM88 °FScattered clouds.5 mph66%29.80 "HgN/A
2:00 PM88 °FBroken clouds.7 mph66%29.83 "HgN/A
1:00 PM86 °FPartly sunny.6 mph70%29.86 "HgN/A
12:00 PM86 °FPartly sunny.6 mph70%29.86 "HgN/A
11:00 AM82 °FPartly sunny.6 mph79%29.89 "HgN/A
10:00 AM82 °FPartly sunny.7 mph79%29.89 "HgN/A
9:00 AM79 °FPartly sunny.3 mph89%29.89 "HgN/A
Weather by CustomWeather, © 2014

See weather overviewHow to use our weather pages